STARLINK-5474 (55665 NORAD) Tracking and Keplerian Element Data

This shows tracking and keplerian element data for the satellite.

Feedback or suggestion? Click here.




ElementValue
Catalog55665
NameSTARLINK-5474
Epoch Orbit130
Epoch Day62.91667824
Epoch Year2023
RAAN110.1849
Inclination69.9995
Eccentricity0.0003583
Argument of Perigee279.7006
Mean Anonmoly327.7432
Mean Motion15.75235743
Decay Rate-0.01028215
L11 55665U 23021AP 23062.91667824 -.01028215 00000+0 -75537-2 0 9990
L22 55665 69.9995 110.1849 0003583 279.7006 327.7432 15.75235743 1304



Live tracking and technical data element details for STARLINK-5474 (NORAD 55665). STARLINK-5474 can be tracked NOW for your location showing map with azimuth and elevation plus other details from your city location.







IsCatalogInMostPopularTable: catalog: 55665, numindb: 2
Update: records affected: 1



GetName: 55665 STARLINK-5474

Hit Count: updated at: Wed, 22 Mar 2023 15:21:55 GMT